Location: Graswijk
(52.9667°N, 6.5500°E)
Time: 11:05:13
(UTC+00:00)

Cosmos 220 Rocket - Pass Details

Date: 15 May 2026
Orbit: 537 x 573 km, 74.0° (Epoch: 8 June)

Event Time Altitude Azimuth Distance (km) Brightness Sun altitude
Exits shadow 20:31:48 - 184° (S) 2,528 6.8 -8.4°
Reaches altitude 10° 20:33:37 10° 178° (S) 1,817 6.0 -8.5°
Maximum altitude 20:37:25 41° 107° (ESE) 807 4.3 -8.9°
Drops below altitude 10° 20:41:18 10° 37° (NE) 1,852 6.7 -9.3°
Sets 20:43:35 0° 31° (NNE) 2,759 7.7 -9.5°
